CES745 NZAA-SAEZ

Flight info

Callsign CES745
Flight time N/A
Altitude 30000
Route GS/N0487F310 DCT 40S175W 40S170W 41S160W 42S150W 43S140W/N0479F330 44S131W 44S130W 44S120W 44S110W/N0476F350 44S100W 44S090W 44S080W DCT MON UM658 BAR UZ109 ISMIL UT655 ASADA
Aircraft B77W/H-SDE1E2E3FGHIJ2J3J4J5M1RWXY/LB1D1

Departure

Time 2026-05-04 07:54
Airport Auckland International Airport (NZAA)

Arrival

Time N/A
Airport Ezeiza International Airport - Ministro Pistarini (SAEZ)
Time Latitude Longitude Altitude Speed Heading
2026-05-04 07:03 -37.00779 174.78117 30 ft 0 kts 69°
2026-05-04 07:38 -37.00796 174.78057 30 ft 3 kts 85°
2026-05-04 07:38 -37.00796 174.78038 30 ft 3 kts 114°
2026-05-04 07:38 -37.00788 174.78025 29 ft 3 kts 139°
2026-05-04 07:38 -37.00774 174.78012 29 ft 3 kts 158°
2026-05-04 07:39 -37.00759 174.78006 29 ft 3 kts 183°
2026-05-04 07:39 -37.00747 174.78008 30 ft 3 kts 197°
2026-05-04 07:39 -37.00729 174.78016 28 ft 3 kts 206°
2026-05-04 07:39 -37.00711 174.78027 29 ft 2 kts 205°
2026-05-04 07:40 -37.00710 174.78028 29 ft 0 kts 205°
2026-05-04 07:43 -37.00723 174.78020 29 ft 5 kts 205°
2026-05-04 07:43 -37.00776 174.78009 29 ft 9 kts 175°
2026-05-04 07:43 -37.00834 174.78027 30 ft 9 kts 162°
2026-05-04 07:43 -37.00891 174.78051 30 ft 9 kts 161°
2026-05-04 07:44 -37.00909 174.78060 30 ft 0 kts 155°
2026-05-04 07:45 -37.00915 174.78063 30 ft 2 kts 161°
2026-05-04 07:45 -37.00938 174.78073 30 ft 5 kts 161°
2026-05-04 07:45 -37.00979 174.78090 30 ft 7 kts 161°
2026-05-04 07:45 -37.01024 174.78107 30 ft 6 kts 171°
2026-05-04 07:46 -37.01055 174.78082 30 ft 6 kts 236°
2026-05-04 07:46 -37.01071 174.78036 30 ft 6 kts 248°
2026-05-04 07:46 -37.01086 174.77987 30 ft 6 kts 251°
2026-05-04 07:46 -37.01104 174.77921 30 ft 10 kts 251°
2026-05-04 07:47 -37.01130 174.77824 30 ft 11 kts 251°
2026-05-04 07:47 -37.01159 174.77749 30 ft 10 kts 221°
2026-05-04 07:47 -37.01223 174.77748 30 ft 10 kts 176°
2026-05-04 07:49 -37.01421 174.77146 30 ft 10 kts 244°
2026-05-04 07:49 -37.01469 174.77108 30 ft 7 kts 196°
2026-05-04 07:49 -37.01481 174.77105 30 ft 0 kts 194°
2026-05-04 07:51 -37.01485 174.77104 30 ft 3 kts 194°
2026-05-04 07:51 -37.01535 174.77089 30 ft 10 kts 192°
2026-05-04 07:51 -37.01586 174.77083 30 ft 7 kts 174°
2026-05-04 07:52 -37.01615 174.77107 30 ft 4 kts 112°
2026-05-04 07:52 -37.01614 174.77139 30 ft 2 kts 79°
2026-05-04 07:52 -37.01612 174.77143 30 ft 0 kts 74°
2026-05-04 07:52 -37.01577 174.77283 30 ft 49 kts 71°
2026-05-04 07:53 -37.01380 174.77994 30 ft 121 kts 71°
2026-05-04 07:54 -36.98205 174.89489 2556 ft 233 kts 70°
2026-05-04 07:55 -36.97664 174.91424 3116 ft 239 kts 70°
2026-05-04 07:55 -36.97105 174.93427 3580 ft 249 kts 70°
2026-05-04 07:55 -36.96548 174.95502 4064 ft 254 kts 77°
2026-05-04 07:55 -36.96614 174.97713 4498 ft 263 kts 111°
2026-05-04 07:56 -36.97629 174.99616 5065 ft 265 kts 127°
2026-05-04 07:56 -36.98784 175.01459 5601 ft 271 kts 125°
2026-05-04 07:56 -36.99926 175.03336 6265 ft 271 kts 125°
2026-05-04 07:56 -37.01065 175.05223 6930 ft 272 kts 124°
2026-05-04 07:57 -37.02209 175.07128 7496 ft 275 kts 124°
2026-05-04 07:57 -37.03360 175.09055 8056 ft 278 kts 124°
2026-05-04 07:57 -37.04505 175.10981 8590 ft 281 kts 124°
2026-05-04 07:57 -37.05676 175.12956 9169 ft 284 kts 124°
2026-05-04 07:58 -37.06874 175.14982 9739 ft 287 kts 124°
2026-05-04 07:58 -37.08061 175.16996 10293 ft 291 kts 124°
2026-05-04 07:58 -37.09276 175.19063 10486 ft 308 kts 124°
2026-05-04 07:58 -37.10579 175.21286 10635 ft 326 kts 124°
2026-05-04 07:59 -37.11961 175.23644 10786 ft 345 kts 124°
2026-05-04 07:59 -37.13416 175.26129 10987 ft 362 kts 124°
2026-05-04 07:59 -37.14927 175.28708 11434 ft 371 kts 124°
2026-05-04 07:59 -37.16468 175.31341 11986 ft 377 kts 124°
2026-05-04 08:00 -37.18029 175.34010 12665 ft 381 kts 124°
2026-05-04 08:00 -37.19600 175.36699 13370 ft 384 kts 125°
2026-05-04 08:00 -37.21187 175.39418 14040 ft 389 kts 125°
2026-05-04 08:02 -37.32717 175.59249 18418 ft 415 kts 124°
2026-05-04 08:02 -37.34423 175.62195 19005 ft 418 kts 124°
2026-05-04 08:02 -37.36144 175.65168 19528 ft 422 kts 124°
2026-05-04 08:03 -37.37869 175.68153 20059 ft 425 kts 124°
2026-05-04 08:03 -37.39618 175.71180 20591 ft 428 kts 124°
2026-05-04 08:03 -37.41349 175.74176 21103 ft 431 kts 124°
2026-05-04 08:03 -37.43118 175.77243 21627 ft 435 kts 124°
2026-05-04 08:04 -37.44901 175.80338 22122 ft 438 kts 124°
2026-05-04 08:04 -37.46693 175.83450 22609 ft 442 kts 124°
2026-05-04 08:04 -37.48501 175.86597 23108 ft 445 kts 124°
2026-05-04 08:04 -37.50321 175.89767 23595 ft 448 kts 124°
2026-05-04 08:05 -37.52152 175.92957 24073 ft 451 kts 124°
2026-05-04 08:05 -37.53997 175.96172 24472 ft 454 kts 124°
2026-05-04 08:05 -37.55853 175.99413 24844 ft 458 kts 125°
2026-05-04 08:05 -37.57726 176.02682 25163 ft 462 kts 125°
2026-05-04 08:06 -37.59615 176.05979 25517 ft 466 kts 125°
2026-05-04 08:06 -37.61516 176.09308 25882 ft 469 kts 125°
2026-05-04 08:06 -37.63427 176.12660 26229 ft 472 kts 125°
2026-05-04 08:06 -37.65350 176.16035 26573 ft 475 kts 125°
2026-05-04 08:08 -37.79119 176.40284 28887 ft 494 kts 126°
2026-05-04 08:08 -37.81122 176.43828 29190 ft 497 kts 126°
2026-05-04 08:10 -37.96694 176.71508 30564 ft 498 kts 125°
2026-05-04 08:11 -37.98694 176.75079 30575 ft 497 kts 125°
2026-05-04 08:11 -38.04658 176.85753 30581 ft 496 kts 125°
2026-05-04 08:12 -38.08639 176.92899 30582 ft 496 kts 125°
2026-05-04 08:12 -38.12621 177.00059 30587 ft 496 kts 125°
2026-05-04 08:13 -38.16591 177.07217 30585 ft 496 kts 125°
2026-05-04 08:13 -38.20560 177.14386 30587 ft 495 kts 125°
2026-05-04 08:14 -38.24517 177.21547 30588 ft 495 kts 124°
2026-05-04 08:16 -38.40248 177.50182 30584 ft 492 kts 124°
2026-05-04 08:16 -38.44156 177.57335 30584 ft 492 kts 124°
2026-05-04 08:17 -38.48057 177.64491 30576 ft 491 kts 124°
2026-05-04 08:17 -38.51952 177.71657 30570 ft 491 kts 124°
2026-05-04 08:19 -38.66693 178.00856 30565 ft 489 kts 111°
2026-05-04 08:20 -38.68738 178.09129 30566 ft 488 kts 105°
2026-05-04 08:20 -38.70551 178.17508 30559 ft 489 kts 104°
2026-05-04 08:21 -38.72378 178.25903 30559 ft 490 kts 104°
2026-05-04 08:21 -38.74227 178.34300 30555 ft 490 kts 104°
2026-05-04 08:22 -38.76082 178.42700 30565 ft 490 kts 104°
2026-05-04 08:24 -38.83443 178.76333 30563 ft 489 kts 104°
2026-05-04 08:24 -38.85264 178.84740 30563 ft 489 kts 104°
2026-05-04 08:25 -38.87076 178.93144 30565 ft 488 kts 104°
2026-05-04 08:25 -38.88882 179.01549 30573 ft 488 kts 104°
2026-05-04 08:27 -38.96030 179.35119 30572 ft 488 kts 104°
2026-05-04 08:28 -38.97518 179.42175 30574 ft 488 kts 104°
2026-05-04 08:28 -38.99277 179.50544 30577 ft 488 kts 104°
2026-05-04 08:29 -39.01042 179.58978 30579 ft 488 kts 104°
2026-05-04 08:31 -39.08049 179.92784 31045 ft 490 kts 103°
2026-05-04 08:33 -39.14068 -179.77740 31588 ft 484 kts 103°
2026-05-04 08:33 -39.14919 -179.73543 31584 ft 484 kts 103°
2026-05-04 08:35 -39.21672 -179.39888 31587 ft 486 kts 103°
2026-05-04 08:35 -39.23350 -179.31440 31591 ft 486 kts 103°
2026-05-04 08:37 -39.29170 -179.01869 31591 ft 487 kts 103°
2026-05-04 08:38 -39.30824 -178.93392 31593 ft 487 kts 103°
2026-05-04 08:38 -39.32470 -178.84917 31593 ft 487 kts 103°
2026-05-04 08:40 -39.38983 -178.51018 31592 ft 487 kts 103°
2026-05-04 08:41 -39.40601 -178.42510 31593 ft 487 kts 103°
2026-05-04 08:41 -39.42211 -178.34001 31589 ft 487 kts 103°
2026-05-04 08:42 -39.43814 -178.25493 31590 ft 487 kts 103°
2026-05-04 08:42 -39.45414 -178.16964 31594 ft 487 kts 103°
2026-05-04 08:43 -39.47006 -178.08442 31591 ft 487 kts 103°
2026-05-04 08:43 -39.48593 -177.99909 31592 ft 488 kts 103°
2026-05-04 08:44 -39.50178 -177.91363 31590 ft 488 kts 103°
2026-05-04 08:46 -39.56454 -177.57097 31591 ft 489 kts 103°
2026-05-04 08:46 -39.57999 -177.48565 31594 ft 489 kts 103°
2026-05-04 08:47 -39.59547 -177.39977 31595 ft 489 kts 103°
2026-05-04 08:47 -39.61101 -177.31320 31599 ft 489 kts 103°
2026-05-04 08:48 -39.62625 -177.22785 31598 ft 489 kts 103°
2026-05-04 08:48 -39.64155 -177.14188 31595 ft 489 kts 103°
2026-05-04 08:49 -39.65679 -177.05586 31594 ft 489 kts 103°
2026-05-04 08:50 -39.70966 -176.75405 31598 ft 490 kts 103°
2026-05-04 08:51 -39.72466 -176.66758 31599 ft 491 kts 103°
2026-05-04 08:51 -39.73959 -176.58103 31597 ft 491 kts 103°
2026-05-04 08:52 -39.75445 -176.49445 31596 ft 491 kts 103°
2026-05-04 08:52 -39.76917 -176.40843 31598 ft 491 kts 103°
2026-05-04 08:54 -39.82779 -176.06132 31597 ft 492 kts 103°
2026-05-04 08:55 -39.84228 -175.97443 31599 ft 492 kts 103°
2026-05-04 08:55 -39.85671 -175.88745 31594 ft 491 kts 103°
2026-05-04 09:01 -40.00152 -174.97055 31585 ft 495 kts 94°
2026-05-04 09:01 -40.00334 -174.88094 31593 ft 495 kts 92°
2026-05-04 09:02 -40.00452 -174.79111 31591 ft 495 kts 92°
2026-05-04 09:02 -40.00597 -174.70185 31588 ft 496 kts 93°
2026-05-04 09:03 -40.00761 -174.61193 31589 ft 496 kts 93°
2026-05-04 09:03 -40.00924 -174.52195 31590 ft 496 kts 93°
2026-05-04 09:04 -40.01079 -174.43188 31589 ft 497 kts 93°
2026-05-04 09:04 -40.01226 -174.34174 31590 ft 497 kts 93°
2026-05-04 09:05 -40.01365 -174.25164 31587 ft 497 kts 93°
2026-05-04 09:05 -40.01497 -174.16142 31591 ft 498 kts 93°
2026-05-04 09:06 -40.01622 -174.07113 31584 ft 498 kts 93°
2026-05-04 09:08 -40.02055 -173.70982 31579 ft 498 kts 93°
2026-05-04 09:08 -40.02145 -173.61945 31579 ft 498 kts 93°
2026-05-04 09:09 -40.02230 -173.52909 31576 ft 498 kts 93°
2026-05-04 09:09 -40.02306 -173.43870 31577 ft 498 kts 92°
2026-05-04 09:10 -40.02375 -173.34834 31576 ft 498 kts 92°
2026-05-04 09:10 -40.02436 -173.25854 31575 ft 498 kts 92°
2026-05-04 09:11 -40.02491 -173.16820 31576 ft 498 kts 92°
2026-05-04 09:11 -40.02540 -173.07777 31573 ft 498 kts 92°
2026-05-04 09:12 -40.02582 -172.98740 31574 ft 498 kts 92°
2026-05-04 09:14 -40.02678 -172.62603 31563 ft 498 kts 92°
2026-05-04 09:14 -40.02684 -172.53574 31564 ft 498 kts 92°
2026-05-04 09:15 -40.02682 -172.44540 31564 ft 498 kts 92°
2026-05-04 09:15 -40.02676 -172.35514 31561 ft 498 kts 92°
2026-05-04 09:17 -40.02560 -171.96417 31554 ft 497 kts 92°
2026-05-04 09:18 -40.02515 -171.87394 31550 ft 497 kts 92°
2026-05-04 09:18 -40.02464 -171.78385 31552 ft 497 kts 92°
2026-05-04 09:19 -40.02405 -171.69364 31539 ft 497 kts 92°
2026-05-04 09:19 -40.02339 -171.60354 31552 ft 497 kts 92°
2026-05-04 09:20 -40.02266 -171.51345 31556 ft 497 kts 92°
2026-05-04 09:20 -40.02186 -171.42334 31540 ft 497 kts 92°
2026-05-04 09:21 -40.02099 -171.33325 31551 ft 496 kts 92°
2026-05-04 09:21 -40.02005 -171.24327 31540 ft 496 kts 92°
2026-05-04 09:22 -40.01905 -171.15319 31537 ft 496 kts 92°
2026-05-04 09:22 -40.01798 -171.06384 31535 ft 496 kts 92°
2026-05-04 09:23 -40.01684 -170.97383 31537 ft 496 kts 91°
2026-05-04 09:23 -40.01562 -170.88392 31540 ft 495 kts 91°
2026-05-04 09:25 -40.01008 -170.52471 31523 ft 495 kts 91°
2026-05-04 09:26 -40.00852 -170.43499 31524 ft 494 kts 91°
2026-05-04 09:26 -40.00690 -170.34534 31521 ft 494 kts 91°
2026-05-04 09:27 -40.00521 -170.25572 31521 ft 494 kts 91°
2026-05-04 09:27 -40.00344 -170.16614 31520 ft 494 kts 91°
2026-05-04 09:28 -40.00163 -170.07663 31516 ft 494 kts 91°
2026-05-04 09:28 -40.00223 -169.98733 31518 ft 491 kts 98°
2026-05-04 09:29 -40.01349 -169.90005 31529 ft 487 kts 104°
2026-05-04 09:29 -40.02647 -169.81387 31517 ft 487 kts 104°
2026-05-04 09:30 -40.03922 -169.72702 31510 ft 488 kts 103°
2026-05-04 09:30 -40.05165 -169.64006 31509 ft 487 kts 103°
2026-05-04 09:31 -40.06391 -169.55310 31509 ft 487 kts 103°
2026-05-04 09:31 -40.07613 -169.46609 31508 ft 487 kts 103°
2026-05-04 09:32 -40.08829 -169.37908 31501 ft 487 kts 103°
2026-05-04 09:34 -40.13625 -169.03101 31501 ft 487 kts 103°
2026-05-04 09:34 -40.14807 -168.94395 31496 ft 487 kts 103°
2026-05-04 09:35 -40.15984 -168.85677 31497 ft 487 kts 103°
2026-05-04 09:35 -40.17154 -168.76965 31494 ft 487 kts 103°
2026-05-04 09:37 -40.21769 -168.42056 31489 ft 487 kts 103°
2026-05-04 09:38 -40.22898 -168.33379 31486 ft 487 kts 103°
2026-05-04 09:38 -40.24037 -168.24583 31487 ft 487 kts 103°
2026-05-04 09:39 -40.25155 -168.15896 31483 ft 488 kts 103°
2026-05-04 09:39 -40.26277 -168.07134 31480 ft 488 kts 103°
2026-05-04 09:40 -40.27389 -167.98371 31479 ft 488 kts 103°
2026-05-04 09:40 -40.28496 -167.89605 31479 ft 488 kts 103°
2026-05-04 09:42 -40.32863 -167.54468 31467 ft 489 kts 103°
2026-05-04 09:43 -40.33938 -167.45670 31467 ft 489 kts 103°
2026-05-04 09:43 -40.35007 -167.36870 31470 ft 489 kts 102°
2026-05-04 09:44 -40.36071 -167.28053 31466 ft 490 kts 102°
2026-05-04 09:46 -40.40263 -166.92734 31466 ft 490 kts 102°
2026-05-04 09:46 -40.41296 -166.83883 31453 ft 491 kts 103°
2026-05-04 09:47 -40.42321 -166.75034 31461 ft 491 kts 102°
2026-05-04 09:49 -40.46356 -166.39617 31443 ft 491 kts 102°
2026-05-04 09:51 -40.49804 -166.08522 31438 ft 492 kts 102°
2026-05-04 09:51 -40.50774 -165.99625 31440 ft 492 kts 102°
2026-05-04 09:52 -40.51738 -165.90724 31433 ft 492 kts 102°
2026-05-04 09:52 -40.52695 -165.81827 31436 ft 492 kts 102°
2026-05-04 09:53 -40.53648 -165.72913 31432 ft 492 kts 102°
2026-05-04 09:53 -40.54592 -165.64001 31430 ft 492 kts 102°
2026-05-04 09:54 -40.55528 -165.55090 31436 ft 492 kts 102°
2026-05-04 09:54 -40.56459 -165.46172 31429 ft 492 kts 102°
2026-05-04 09:55 -40.57382 -165.37245 31430 ft 493 kts 102°
2026-05-04 09:55 -40.58299 -165.28315 31435 ft 493 kts 102°
2026-05-04 09:56 -40.59210 -165.19383 31421 ft 493 kts 102°
2026-05-04 09:56 -40.60115 -165.10438 31426 ft 493 kts 102°
2026-05-04 09:57 -40.61012 -165.01500 31417 ft 493 kts 102°
2026-05-04 09:57 -40.61902 -164.92560 31421 ft 493 kts 102°
2026-05-04 09:58 -40.62785 -164.83614 31413 ft 493 kts 102°
2026-05-04 09:58 -40.63661 -164.74672 31414 ft 493 kts 102°
2026-05-04 10:00 -40.67094 -164.38895 31407 ft 492 kts 102°
2026-05-04 10:04 -40.72820 -163.76390 31388 ft 491 kts 101°
2026-05-04 10:04 -40.73609 -163.67451 31392 ft 491 kts 101°
2026-05-04 10:05 -40.74392 -163.58515 31398 ft 491 kts 101°
2026-05-04 10:05 -40.75039 -163.51078 31394 ft 491 kts 101°
2026-05-04 10:06 -40.75809 -163.42128 31386 ft 491 kts 101°
2026-05-04 10:06 -40.76573 -163.33182 31386 ft 491 kts 101°
2026-05-04 10:08 -40.79189 -163.01890 31375 ft 490 kts 101°
2026-05-04 10:08 -40.79919 -162.92966 31376 ft 489 kts 101°
2026-05-04 10:09 -40.80644 -162.84034 31377 ft 489 kts 101°
2026-05-04 10:09 -40.81360 -162.75101 31373 ft 489 kts 101°
2026-05-04 10:10 -40.82065 -162.66230 31368 ft 489 kts 101°
2026-05-04 10:10 -40.82767 -162.57305 31372 ft 489 kts 101°
2026-05-04 10:11 -40.83463 -162.48370 31371 ft 489 kts 101°
2026-05-04 10:11 -40.84152 -162.39433 31364 ft 489 kts 101°
2026-05-04 10:12 -40.84834 -162.30503 31366 ft 489 kts 100°
2026-05-04 10:12 -40.85508 -162.21563 31359 ft 489 kts 100°
2026-05-04 10:13 -40.86175 -162.12630 31360 ft 489 kts 100°
2026-05-04 10:13 -40.86836 -162.03707 31355 ft 488 kts 100°
2026-05-04 10:14 -40.87489 -161.94784 31361 ft 488 kts 100°
2026-05-04 10:16 -40.90031 -161.59084 31349 ft 488 kts 100°
2026-05-04 10:16 -40.90650 -161.50150 31344 ft 488 kts 100°
2026-05-04 10:17 -40.91256 -161.41287 31345 ft 488 kts 99°
2026-05-04 10:19 -40.93632 -161.05566 31337 ft 487 kts 99°
2026-05-04 10:19 -40.94208 -160.96654 31331 ft 487 kts 99°
2026-05-04 10:20 -40.94776 -160.87728 31338 ft 487 kts 99°
2026-05-04 10:20 -40.95337 -160.78813 31335 ft 486 kts 99°
2026-05-04 10:21 -40.95891 -160.69909 31324 ft 486 kts 99°
2026-05-04 10:21 -40.96439 -160.61005 31326 ft 485 kts 99°
2026-05-04 10:22 -40.97245 -160.47672 31327 ft 485 kts 99°
2026-05-04 10:23 -40.97773 -160.38778 31320 ft 484 kts 99°
2026-05-04 10:25 -40.99817 -160.03294 31316 ft 482 kts 99°
2026-05-04 10:25 -41.00697 -159.94559 31325 ft 476 kts 105°
2026-05-04 10:26 -41.01966 -159.86017 31314 ft 476 kts 106°
2026-05-04 10:26 -41.03244 -159.77421 31312 ft 475 kts 106°
2026-05-04 10:27 -41.04489 -159.68822 31313 ft 475 kts 105°
2026-05-04 10:27 -41.05713 -159.60220 31313 ft 475 kts 105°
2026-05-04 10:28 -41.06927 -159.51615 31307 ft 475 kts 105°
2026-05-04 10:28 -41.08135 -159.43010 31308 ft 475 kts 105°
2026-05-04 10:29 -41.09336 -159.34407 31308 ft 474 kts 105°
2026-05-04 10:29 -41.10529 -159.25816 31305 ft 474 kts 105°
2026-05-04 10:30 -41.11717 -159.17219 31300 ft 474 kts 105°
2026-05-04 10:30 -41.12897 -159.08627 31296 ft 473 kts 105°
2026-05-04 10:31 -41.14070 -159.00037 31297 ft 473 kts 105°
2026-05-04 10:32 -41.18118 -158.70000 31292 ft 474 kts 105°
2026-05-04 10:33 -41.19263 -158.61387 31298 ft 474 kts 105°
2026-05-04 10:33 -41.20401 -158.52780 31291 ft 474 kts 104°
2026-05-04 10:34 -41.21535 -158.44148 31288 ft 474 kts 104°
2026-05-04 10:34 -41.22662 -158.35519 31277 ft 474 kts 104°
2026-05-04 10:35 -41.23784 -158.26876 31284 ft 475 kts 104°
2026-05-04 10:35 -41.24902 -158.18220 31159 ft 477 kts 103°
2026-05-04 10:36 -41.26031 -158.09442 31282 ft 487 kts 103°
2026-05-04 10:36 -41.27175 -158.00484 31289 ft 495 kts 103°
2026-05-04 10:37 -41.28311 -157.91484 31274 ft 493 kts 103°
2026-05-04 10:37 -41.29436 -157.82514 31276 ft 491 kts 103°
2026-05-04 10:39 -41.33314 -157.51227 31274 ft 491 kts 103°
2026-05-04 10:40 -41.34410 -157.42252 31271 ft 492 kts 103°
2026-05-04 10:40 -41.35500 -157.33262 31269 ft 492 kts 103°
2026-05-04 10:41 -41.36583 -157.24261 31266 ft 493 kts 103°
2026-05-04 10:41 -41.37662 -157.15245 31262 ft 493 kts 103°
2026-05-04 10:42 -41.38733 -157.06237 31263 ft 493 kts 103°
2026-05-04 10:42 -41.39799 -156.97204 31267 ft 493 kts 103°
2026-05-04 10:43 -41.40856 -156.88187 31255 ft 493 kts 103°
2026-05-04 10:45 -41.45010 -156.52098 31250 ft 492 kts 103°
2026-05-04 10:45 -41.46032 -156.43068 31251 ft 492 kts 103°
2026-05-04 10:46 -41.47045 -156.34043 31247 ft 492 kts 103°
2026-05-04 10:46 -41.48052 -156.25009 31243 ft 492 kts 103°
2026-05-04 10:47 -41.49050 -156.15987 31244 ft 492 kts 103°
2026-05-04 10:47 -41.50034 -156.07016 31239 ft 492 kts 103°
2026-05-04 10:49 -41.53929 -155.70894 31244 ft 492 kts 102°
2026-05-04 10:50 -41.54884 -155.61860 31238 ft 492 kts 102°
2026-05-04 10:52 -41.58631 -155.25731 31225 ft 491 kts 102°
2026-05-04 10:52 -41.59550 -155.16703 31228 ft 490 kts 102°
2026-05-04 10:54 -41.63140 -154.80667 31221 ft 489 kts 102°
2026-05-04 10:56 -41.66476 -154.46107 31217 ft 489 kts 102°
2026-05-04 10:57 -41.67331 -154.37078 31220 ft 489 kts 101°
2026-05-04 10:57 -41.68176 -154.28057 31205 ft 489 kts 101°
2026-05-04 10:58 -41.69015 -154.19032 31213 ft 489 kts 101°
2026-05-04 10:58 -41.69846 -154.10009 31224 ft 489 kts 101°
2026-05-04 10:59 -41.70671 -154.00975 31208 ft 489 kts 101°
2026-05-04 10:59 -41.71487 -153.91944 31214 ft 489 kts 101°
2026-05-04 11:00 -41.72299 -153.82905 31211 ft 489 kts 101°
2026-05-04 11:02 -41.75472 -153.46747 31204 ft 489 kts 101°
2026-05-04 11:05 -41.81091 -152.79113 31194 ft 488 kts 100°
2026-05-04 11:06 -41.81811 -152.70076 31199 ft 487 kts 99°
2026-05-04 11:06 -41.82518 -152.61103 31198 ft 487 kts 99°
2026-05-04 11:10 -41.87300 -151.97909 31185 ft 488 kts 99°
2026-05-04 11:12 -41.89885 -151.61686 31182 ft 489 kts 98°
2026-05-04 11:12 -41.90512 -151.52604 31184 ft 489 kts 98°
2026-05-04 11:13 -41.91134 -151.43508 31184 ft 489 kts 98°
2026-05-04 11:13 -41.91746 -151.34477 31174 ft 489 kts 98°
2026-05-04 11:14 -41.92355 -151.25372 31177 ft 490 kts 97°
2026-05-04 11:16 -41.94720 -150.88938 31169 ft 491 kts 97°
2026-05-04 11:16 -41.95296 -150.79790 31163 ft 491 kts 97°
2026-05-04 11:17 -41.95862 -150.70640 31164 ft 492 kts 97°
2026-05-04 11:19 -41.98064 -150.33997 31166 ft 493 kts 96°
2026-05-04 11:19 -41.98594 -150.24867 31160 ft 494 kts 96°
2026-05-04 11:20 -41.99121 -150.15665 31167 ft 494 kts 96°
2026-05-04 11:20 -41.99642 -150.06445 31164 ft 495 kts 95°
2026-05-04 11:22 -42.04328 -149.69991 31154 ft 496 kts 102°
2026-05-04 11:23 -42.05632 -149.60868 31152 ft 497 kts 102°
2026-05-04 11:25 -42.10128 -149.28822 31153 ft 499 kts 101°
2026-05-04 11:25 -42.11401 -149.19638 31149 ft 499 kts 101°
2026-05-04 11:27 -42.17046 -148.78207 31143 ft 502 kts 101°
2026-05-04 11:28 -42.18285 -148.68950 31144 ft 502 kts 101°
2026-05-04 11:28 -42.19518 -148.59675 31142 ft 503 kts 100°
2026-05-04 11:29 -42.20745 -148.50383 31143 ft 504 kts 100°
2026-05-04 11:29 -42.21968 -148.41071 31146 ft 505 kts 100°
2026-05-04 11:33 -42.30363 -147.75413 31133 ft 510 kts 99°
2026-05-04 11:33 -42.31539 -147.65958 31132 ft 511 kts 99°
2026-05-04 11:34 -42.32709 -147.56490 31133 ft 511 kts 99°
2026-05-04 11:34 -42.33873 -147.47011 31130 ft 511 kts 99°
2026-05-04 11:35 -42.35026 -147.37515 31131 ft 512 kts 99°
2026-05-04 11:35 -42.36176 -147.28023 31131 ft 513 kts 98°
2026-05-04 11:36 -42.37320 -147.18497 31129 ft 513 kts 98°
2026-05-04 11:36 -42.38454 -147.08971 31125 ft 514 kts 98°
2026-05-04 11:37 -42.39583 -146.99425 31123 ft 514 kts 98°
2026-05-04 11:37 -42.40706 -146.89879 31127 ft 514 kts 98°
2026-05-04 11:38 -42.41820 -146.80322 31116 ft 515 kts 98°
2026-05-04 11:38 -42.42926 -146.70740 31120 ft 515 kts 98°
2026-05-04 11:39 -42.44025 -146.61166 31116 ft 515 kts 98°
2026-05-04 11:41 -42.47808 -146.27661 31114 ft 515 kts 98°
2026-05-04 11:41 -42.48873 -146.18055 31112 ft 516 kts 98°
2026-05-04 11:42 -42.49931 -146.08443 31107 ft 516 kts 98°
2026-05-04 11:42 -42.50980 -145.98825 31109 ft 516 kts 97°
2026-05-04 11:43 -42.52023 -145.89196 31104 ft 517 kts 97°
2026-05-04 11:43 -42.53058 -145.79551 31103 ft 517 kts 97°
2026-05-04 11:44 -42.54085 -145.69909 31105 ft 517 kts 97°
2026-05-04 11:44 -42.55106 -145.60259 31100 ft 517 kts 97°
2026-05-04 11:45 -42.56117 -145.50612 31099 ft 517 kts 97°
2026-05-04 11:45 -42.57121 -145.40949 31097 ft 517 kts 97°
2026-05-04 11:46 -42.58116 -145.31284 31098 ft 517 kts 97°
2026-05-04 11:46 -42.59103 -145.21614 31094 ft 518 kts 97°
2026-05-04 11:47 -42.60085 -145.11927 31089 ft 518 kts 97°
2026-05-04 11:47 -42.61057 -145.02239 31090 ft 518 kts 97°
2026-05-04 11:48 -42.62016 -144.92601 31091 ft 519 kts 97°
2026-05-04 11:48 -42.62974 -144.82903 31088 ft 519 kts 97°
2026-05-04 11:49 -42.63926 -144.73186 31091 ft 519 kts 97°
2026-05-04 11:49 -42.64866 -144.63476 31091 ft 519 kts 97°
2026-05-04 11:50 -42.65799 -144.53760 31088 ft 519 kts 96°
2026-05-04 11:50 -42.66724 -144.44031 31089 ft 519 kts 96°
2026-05-04 11:51 -42.67642 -144.34297 31084 ft 520 kts 96°
2026-05-04 11:51 -42.68552 -144.24557 31083 ft 520 kts 96°
2026-05-04 11:52 -42.69454 -144.14821 31086 ft 519 kts 96°
2026-05-04 11:52 -42.70348 -144.05069 31085 ft 519 kts 96°
2026-05-04 11:53 -42.71232 -143.95327 31081 ft 519 kts 96°
2026-05-04 11:53 -42.72110 -143.85574 31087 ft 519 kts 96°
2026-05-04 11:55 -42.75528 -143.46590 31080 ft 520 kts 96°
2026-05-04 11:56 -42.76365 -143.36820 31075 ft 520 kts 95°
2026-05-04 11:56 -42.77192 -143.27034 31079 ft 521 kts 95°
2026-05-04 11:57 -42.78011 -143.17244 31077 ft 521 kts 95°
2026-05-04 11:57 -42.78827 -143.07457 31075 ft 521 kts 95°
2026-05-04 11:58 -42.79631 -142.97652 31073 ft 521 kts 95°
2026-05-04 11:58 -42.80429 -142.87849 31072 ft 521 kts 95°
2026-05-04 11:59 -42.81216 -142.78039 31069 ft 521 kts 95°
2026-05-04 11:59 -42.81992 -142.68226 31070 ft 521 kts 95°
2026-05-04 12:00 -42.82635 -142.60081 31075 ft 521 kts 95°
2026-05-04 12:00 -42.83404 -142.50255 31066 ft 521 kts 95°
2026-05-04 12:01 -42.84155 -142.40424 31068 ft 522 kts 94°
2026-05-04 12:02 -42.86748 -142.05872 31064 ft 525 kts 94°
2026-05-04 12:03 -42.87473 -141.95966 31065 ft 525 kts 94°
2026-05-04 12:03 -42.88182 -141.86112 31060 ft 525 kts 94°
2026-05-04 12:04 -42.88891 -141.76204 31054 ft 525 kts 94°
2026-05-04 12:04 -42.89589 -141.66287 31065 ft 526 kts 94°
2026-05-04 12:05 -42.90278 -141.56357 31068 ft 526 kts 94°
2026-05-04 12:05 -42.90959 -141.46429 31060 ft 526 kts 94°
2026-05-04 12:06 -42.91634 -141.36473 31062 ft 527 kts 93°
2026-05-04 12:06 -42.92301 -141.26515 31058 ft 527 kts 93°
2026-05-04 12:07 -42.92962 -141.16543 31053 ft 528 kts 93°
2026-05-04 12:07 -42.93610 -141.06560 31055 ft 529 kts 93°
2026-05-04 12:08 -42.94250 -140.96562 31055 ft 529 kts 93°
2026-05-04 12:08 -42.94882 -140.86558 31053 ft 529 kts 93°
2026-05-04 12:09 -42.95505 -140.76621 31052 ft 529 kts 92°
2026-05-04 12:09 -42.96122 -140.66603 31054 ft 530 kts 92°
2026-05-04 12:10 -42.96732 -140.56576 31046 ft 531 kts 92°
2026-05-04 12:10 -42.97333 -140.46524 31046 ft 531 kts 92°
2026-05-04 12:11 -42.97925 -140.36470 31053 ft 531 kts 92°
2026-05-04 12:11 -42.98512 -140.26403 31048 ft 532 kts 92°
2026-05-04 12:12 -42.99086 -140.16322 31049 ft 533 kts 92°
2026-05-04 12:12 -42.99653 -140.06231 31049 ft 533 kts 92°
2026-05-04 12:14 -43.05128 -139.66107 31146 ft 546 kts 100°
2026-05-04 12:15 -43.05891 -139.61028 31369 ft 547 kts 100°
2026-05-04 12:15 -43.06625 -139.55991 31639 ft 548 kts 99°
2026-05-04 12:15 -43.07386 -139.50807 31889 ft 549 kts 99°
2026-05-04 12:15 -43.08135 -139.45747 32120 ft 551 kts 99°
2026-05-04 12:16 -43.08901 -139.40601 32397 ft 553 kts 100°
2026-05-04 12:16 -43.09663 -139.35451 32731 ft 552 kts 99°
2026-05-04 12:16 -43.10421 -139.30306 32879 ft 552 kts 99°
2026-05-04 12:16 -43.11188 -139.25140 32963 ft 555 kts 99°
2026-05-04 12:17 -43.12683 -139.14722 33047 ft 559 kts 99°
2026-05-04 12:17 -43.14172 -139.04270 33028 ft 558 kts 99°
2026-05-04 12:18 -43.15667 -138.93828 33044 ft 558 kts 99°
2026-05-04 12:18 -43.17164 -138.83404 33050 ft 557 kts 99°
2026-05-04 12:19 -43.18583 -138.72966 33033 ft 558 kts 99°
2026-05-04 12:19 -43.20065 -138.62548 33049 ft 557 kts 99°
2026-05-04 12:20 -43.21557 -138.52089 33050 ft 561 kts 99°
2026-05-04 12:20 -43.23018 -138.41539 33038 ft 564 kts 98°